• In Uzbekistan
  • List of Countries
  • For 7 days
  • Water Temperature
  • Weather Map
  • Weather Widgets
  • user-avatar
    Login

    Hourly Weather Shumen

    Today, 3 June, Wednesday

    Time Temperature Precipitation Wind Pressure Humidity
    00:00 +8°C° 0.1 mm 0 mps 724 mmHg 94%
    01:00 +8°C° 0.1 mm 1 mps 724 mmHg 95%
    02:00 +8°C° 0.1 mm 1 mps 724 mmHg 95%
    03:00 +8°C° 0 mm 1 mps 724 mmHg 95%
    04:00 +7°C° 0 mm 1 mps 724 mmHg 95%
    05:00 +7°C° 0 mm 1 mps 724 mmHg 95%
    06:00 +9°C° 0 mm 1 mps 724 mmHg 89%
    07:00 +11°C° 0 mm 1 mps 725 mmHg 84%
    08:00 +13°C° 0 mm 2 mps 725 mmHg 79%
    09:00 +14°C° 0 mm 2 mps 725 mmHg 70%
    10:00 +16°C° 0 mm 2 mps 725 mmHg 62%
    11:00 +17°C° 0 mm 2 mps 726 mmHg 54%
    12:00 +18°C° 0 mm 2 mps 725 mmHg 52%
    13:00 +18°C° 0 mm 2 mps 725 mmHg 51%
    14:00 +19°C° 0 mm 2 mps 725 mmHg 50%
    15:00 +19°C° 0 mm 2 mps 725 mmHg 52%
    16:00 +19°C° 0 mm 3 mps 725 mmHg 53%
    17:00 +19°C° 0 mm 3 mps 725 mmHg 55%
    18:00 +17°C° 0.1 mm 2 mps 724 mmHg 64%
    19:00 +15°C° 0.1 mm 2 mps 724 mmHg 72%
    20:00 +13°C° 0.1 mm 1 mps 724 mmHg 81%
    21:00 +12°C° 0 mm 1 mps 724 mmHg 83%
    22:00 +11°C° 0 mm 1 mps 724 mmHg 85%
    23:00 +11°C° 0 mm 1 mps 725 mmHg 87%

    Tomorrow, 4 June, Thursday

    Time Temperature Precipitation Wind Pressure Humidity
    00:00 +10°C° 0 mm 1 mps 724 mmHg 88%
    01:00 +10°C° 0 mm 1 mps 724 mmHg 88%
    02:00 +10°C° 0 mm 1 mps 724 mmHg 89%
    03:00 +10°C° 0 mm 1 mps 724 mmHg 89%
    04:00 +10°C° 0 mm 1 mps 724 mmHg 90%
    05:00 +10°C° 0 mm 1 mps 724 mmHg 90%
    06:00 +12°C° 0 mm 1 mps 724 mmHg 83%
    07:00 +14°C° 0 mm 2 mps 724 mmHg 77%
    08:00 +17°C° 0 mm 2 mps 725 mmHg 71%
    09:00 +18°C° 0 mm 3 mps 725 mmHg 65%
    10:00 +20°C° 0 mm 4 mps 725 mmHg 59%
    11:00 +22°C° 0 mm 4 mps 726 mmHg 53%
    12:00 +22°C° 0.1 mm 5 mps 726 mmHg 52%
    13:00 +23°C° 0.1 mm 5 mps 726 mmHg 52%
    14:00 +25°C° 0.1 mm 5 mps 725 mmHg 52%
    15:00 +23°C° 0.1 mm 5 mps 725 mmHg 54%
    16:00 +23°C° 0.1 mm 4 mps 725 mmHg 56%
    17:00 +23°C° 0.1 mm 4 mps 725 mmHg 58%
    18:00 +21°C° 0 mm 4 mps 725 mmHg 64%
    19:00 +19°C° 0 mm 3 mps 725 mmHg 70%
    20:00 +17°C° 0 mm 3 mps 725 mmHg 76%
    21:00 +17°C° 0 mm 2 mps 726 mmHg 80%
    22:00 +16°C° 0 mm 2 mps 726 mmHg 83%
    23:00 +15°C° 0 mm 2 mps 726 mmHg 86%

    Day after tomorrow, 5 June, Friday

    Time Temperature Precipitation Wind Pressure Humidity
    00:00 +15°C° 0 mm 2 mps 726 mmHg 87%
    01:00 +14°C° 0 mm 2 mps 726 mmHg 87%
    02:00 +14°C° 0 mm 2 mps 726 mmHg 88%
    03:00 +14°C° 0 mm 2 mps 726 mmHg 89%
    04:00 +13°C° 0 mm 2 mps 726 mmHg 90%
    05:00 +13°C° 0 mm 2 mps 726 mmHg 90%
    06:00 +15°C° 0 mm 2 mps 726 mmHg 85%
    07:00 +17°C° 0 mm 2 mps 726 mmHg 79%
    08:00 +19°C° 0 mm 3 mps 727 mmHg 74%
    09:00 +20°C° 0 mm 4 mps 727 mmHg 69%
    10:00 +22°C° 0 mm 5 mps 727 mmHg 64%
    11:00 +24°C° 0 mm 6 mps 727 mmHg 59%
    12:00 +26°C° 0 mm 6 mps 727 mmHg 57%
    13:00 +26°C° 0 mm 7 mps 727 mmHg 55%
    14:00 +27°C° 0 mm 7 mps 726 mmHg 53%
    15:00 +27°C° 0 mm 7 mps 726 mmHg 56%
    16:00 +26°C° 0 mm 7 mps 726 mmHg 58%
    17:00 +24°C° 0 mm 6 mps 726 mmHg 60%
    18:00 +22°C° 0 mm 6 mps 726 mmHg 62%
    19:00 +21°C° 0 mm 5 mps 726 mmHg 63%
    20:00 +19°C° 0 mm 5 mps 726 mmHg 65%
    21:00 +17°C° 0 mm 5 mps 726 mmHg 67%
    22:00 +17°C° 0 mm 4 mps 726 mmHg 68%
    23:00 +15°C° 0 mm 4 mps 726 mmHg 70%

    6 June, Saturday

    Time Temperature Precipitation Wind Pressure Humidity
    00:00 +15°C° 0 mm 4 mps 726 mmHg 71%
    01:00 +14°C° 0 mm 4 mps 726 mmHg 72%
    02:00 +14°C° 0 mm 3 mps 726 mmHg 73%
    03:00 +13°C° 0 mm 3 mps 726 mmHg 74%
    04:00 +13°C° 0 mm 3 mps 726 mmHg 74%
    05:00 +13°C° 0 mm 3 mps 726 mmHg 75%
    06:00 +14°C° 0 mm 3 mps 726 mmHg 70%
    07:00 +17°C° 0 mm 4 mps 727 mmHg 66%
    08:00 +19°C° 0 mm 5 mps 727 mmHg 62%
    09:00 +21°C° 0 mm 5 mps 727 mmHg 58%
    10:00 +22°C° 0 mm 6 mps 727 mmHg 55%
    11:00 +23°C° 0 mm 6 mps 728 mmHg 51%
    12:00 +24°C° 0 mm 6 mps 728 mmHg 48%
    13:00 +26°C° 0 mm 6 mps 728 mmHg 45%
    14:00 +27°C° 0 mm 6 mps 727 mmHg 42%
    15:00 +27°C° 0 mm 5 mps 727 mmHg 46%
    16:00 +26°C° 0 mm 5 mps 727 mmHg 49%
    17:00 +26°C° 0 mm 4 mps 727 mmHg 53%
    18:00 +24°C° 0 mm 3 mps 727 mmHg 59%
    19:00 +21°C° 0 mm 3 mps 727 mmHg 66%
    20:00 +18°C° 0 mm 2 mps 727 mmHg 72%
    21:00 +17°C° 0.1 mm 2 mps 727 mmHg 74%
    22:00 +17°C° 0.1 mm 2 mps 727 mmHg 75%
    23:00 +16°C° 0.1 mm 2 mps 727 mmHg 77%

    7 June, Sunday

    Time Temperature Precipitation Wind Pressure Humidity
    00:00 +15°C° 0 mm 1 mps 727 mmHg 78%
    01:00 +15°C° 0 mm 1 mps 727 mmHg 79%
    02:00 +15°C° 0 mm 1 mps 726 mmHg 80%
    03:00 +15°C° 0 mm 1 mps 726 mmHg 80%
    04:00 +15°C° 0 mm 1 mps 726 mmHg 80%
    05:00 +15°C° 0 mm 1 mps 726 mmHg 80%
    06:00 +18°C° 0 mm 1 mps 726 mmHg 75%
    07:00 +19°C° 0 mm 1 mps 726 mmHg 71%
    08:00 +20°C° 0 mm 2 mps 727 mmHg 66%
    09:00 +23°C° 0 mm 2 mps 727 mmHg 60%
    10:00 +25°C° 0 mm 2 mps 727 mmHg 54%
    11:00 +27°C° 0 mm 2 mps 727 mmHg 48%
    12:00 +27°C° 0 mm 2 mps 727 mmHg 48%
    13:00 +27°C° 0 mm 3 mps 727 mmHg 48%
    14:00 +28°C° 0 mm 3 mps 726 mmHg 48%
    15:00 +28°C° 0 mm 3 mps 726 mmHg 51%
    16:00 +27°C° 0 mm 3 mps 726 mmHg 54%
    17:00 +27°C° 0 mm 3 mps 726 mmHg 57%
    18:00 +25°C° 0 mm 3 mps 726 mmHg 63%
    19:00 +23°C° 0 mm 2 mps 726 mmHg 68%
    20:00 +21°C° 0 mm 1 mps 726 mmHg 74%
    21:00 +20°C° 0 mm 1 mps 726 mmHg 76%
    22:00 +19°C° 0 mm 1 mps 726 mmHg 77%
    23:00 +19°C° 0 mm 1 mps 727 mmHg 78%

    8 June, Monday

    Time Temperature Precipitation Wind Pressure Humidity
    00:00 +18°C° 0 mm 1 mps 726 mmHg 80%
    01:00 +18°C° 0 mm 1 mps 726 mmHg 81%
    02:00 +16°C° 0 mm 0 mps 726 mmHg 83%
    03:00 +16°C° 0 mm 0 mps 726 mmHg 83%
    04:00 +15°C° 0 mm 0 mps 726 mmHg 83%
    05:00 +15°C° 0 mm 0 mps 726 mmHg 84%
    06:00 +18°C° 0 mm 0 mps 726 mmHg 77%
    07:00 +20°C° 0 mm 0 mps 727 mmHg 71%
    08:00 +22°C° 0 mm 0 mps 727 mmHg 65%
    09:00 +23°C° 0.1 mm 0 mps 727 mmHg 61%
    10:00 +26°C° 0.1 mm 1 mps 727 mmHg 57%
    11:00 +28°C° 0.1 mm 1 mps 727 mmHg 53%
    12:00 +28°C° 0.7 mm 1 mps 727 mmHg 54%
    13:00 +27°C° 0.7 mm 1 mps 727 mmHg 55%
    14:00 +27°C° 0.7 mm 1 mps 727 mmHg 57%
    15:00 +26°C° 1.5 mm 1 mps 727 mmHg 62%
    16:00 +26°C° 1.5 mm 1 mps 727 mmHg 67%
    17:00 +25°C° 1.5 mm 2 mps 726 mmHg 73%
    18:00 +23°C° 0.7 mm 1 mps 726 mmHg 76%
    19:00 +22°C° 0.7 mm 1 mps 726 mmHg 79%
    20:00 +21°C° 0.7 mm 1 mps 726 mmHg 81%
    21:00 +20°C° 0.6 mm 1 mps 726 mmHg 85%
    22:00 +19°C° 0.6 mm 1 mps 726 mmHg 88%
    23:00 +18°C° 0.6 mm 1 mps 726 mmHg 91%
    Show more